Location: Unspecified
(52.4292°N, 19.3359°E)
Time: 17:09:10
(UTC+02:00)

Transit 2A Rocket - Pass Details

Date: 25 May 2024
Orbit: 583 x 910 km, 66.7° (Epoch: 14 June)

Event Time Altitude Azimuth Distance (km) Brightness Sun altitude
Rises 03:19:34 0° 182° (S) 2,987 - -8.7°
Exits shadow 03:20:37 - 179° (S) 2,609 7.3 -8.6°
Reaches altitude 10° 03:22:01 10° 171° (S) 2,129 6.9 -8.5°
Maximum altitude 03:26:10 29° 112° (ESE) 1,322 6.4 -8.1°
Drops below altitude 10° 03:30:40 10° 54° (NE) 2,329 9.0 -7.7°
Sets 03:33:27 0° 44° (NE) 3,321 10.9 -7.4°
